Flag for U.S.A. Weather past 2 weeks in Rapid City, South Dakota, U.S.A.

Now
25 °F

Light snow. Low clouds.


Feels Like: 11 °F
Forecast: 18 / 28 °F
Wind: 18 mph from North

Location: Ellsworth Air Force Base

Current Time: Dec 25, 2014 at 2:28:29 PM

Latest Report: Dec 25, 2014 at 2:03 PM


Visibility: 10 mi

Pressure: 29.76 "Hg

Humidity: 93%

Dew point: 23 °F

Location of Rapid CityLocation

Historic Weather in Rapid City — Graph

°F

Rapid City temperature yesterday

Maximum temperature yesterday: 38 °F (at 2:58 PM)
Minimum temperature yesterday: 11 °F (at 6:58 AM)
Average temperature yesterday: 28 °F

Past Weeks' High & Low Weather Summary

 TemperatureHumidityPressure
High67 °F (Dec 12, 12:58 PM)100% (Dec 17, 8:58 PM)30.41 "Hg (Dec 17, 8:58 PM)
Low11 °F (Dec 24, 6:58 AM)20% (Dec 11, 2:58 PM)29.43 "Hg (Dec 21, 12:58 PM)
Average33 °F72%29.94 "Hg
* Reported Dec 10 12:58 PM — Dec 25 12:58 PM, Rapid City, Weather by CustomWeather, © 2014

Note: Actual official high and low records may vary slightly from our data, if they occured in-between our weather recording intervals... More about our weather records

Advertising

Rapid City weather history for previous 24 hours

 ConditionsComfort  
Time TempWeatherWind HumidityBarometerVisibility
12:58 PM
Dec 25
26 °FLight snow. Mostly cloudy.16 mph93%29.84 "Hg10 mi
11:58 AM26 °FLight snow. Mostly cloudy.14 mph94%29.84 "Hg10 mi
10:58 AM27 °FLight snow. Low clouds.15 mph95%29.84 "Hg10 mi
9:58 AM29 °FLight snow. Mostly cloudy.22 mph96%29.80 "Hg9 mi
8:58 AM30 °FLight snow. Low clouds.15 mph97%29.77 "Hg8 mi
7:58 AM30 °FLight snow. Cloudy.13 mph93%29.75 "Hg1 mi
6:58 AM30 °FLight snow. Mostly cloudy.13 mph97%29.71 "Hg2 mi
6:02 AM32 °FFreezing rain. Ice fog.13 mph93%29.58 "Hg6 mi
4:58 AM31 °FLight snow. Ice fog.12 mph98%29.61 "Hg5 mi
3:58 AM31 °FLight snow. Low clouds.10 mph97%29.58 "Hg10 mi
2:58 AM31 °FLight snow. Low clouds.8 mph97%29.58 "Hg10 mi
2:03 AM32 °FLight snow. Mostly cloudy.10 mph93%29.49 "Hg10 mi
1:58 AM32 °FLight snow. Mostly cloudy.10 mph93%29.55 "Hg10 mi
12:58 AM34 °FLight snow. Mostly cloudy.12 mph76%29.54 "Hg10 mi
11:58 PM
Dec 24
34 °FOvercast.12 mph72%29.51 "Hg10 mi
10:58 PM32 °FOvercast.13 mph74%29.49 "Hg10 mi
9:58 PM35 °FPassing clouds.1 mph75%29.48 "Hg10 mi
8:58 PM36 °FOvercast.5 mph75%29.49 "Hg10 mi
7:58 PM34 °FOvercast.6 mph77%29.53 "Hg10 mi
5:58 PM33 °FPassing clouds.2 mph75%29.56 "Hg10 mi
4:58 PM36 °FPassing clouds.1 mph64%29.56 "Hg10 mi
3:58 PM37 °FClear.No wind63%29.58 "Hg10 mi
2:58 PM38 °FSunny.No wind64%29.60 "Hg10 mi
Weather by CustomWeather, © 2014

See weather overviewHow to use our weather pages